Regional Weather Roundup
Issued by NWS

Home | Current Version | Previous Version | Graphics & Text | Print | Product List | Glossary On
Versions: 1 2 3 4 5 6 7 8 9 10 11 12 13 14 15 16 17 18 19 20 21 22 23 24 25 26 27 28 29 30 31 32 33 34 35 36 37 38 39 40 41 42 43 44 45 46 47 48 49 50
000
ASUS43 KDTX 161901
RWRMI
MICHIGAN HOURLY REGIONAL WEATHER ROUNDUP
NATIONAL WEATHER SERVICE DETROIT/PONTIAC MI
200 PM EST MON JAN 16 2017

NOTE: "FAIR" INDICATES FEW OR NO CLOUDS BELOW 12,000 FEET WITH NO
SIGNIFICANT WEATHER AND/OR OBSTRUCTION TO VISIBILITY.

MIZ047>049-052>055-059>063-066>070-074>076-081>083-162000-
SOUTHEAST LOWER MICHIGAN

CITY           SKY/WX    TMP DP  RH WIND       PRES   REMARKS
ADRIAN         CLOUDY    32  30  92 E6        30.25F FOG     WCI  26
ALMA           CLOUDY    32  24  71 SW6       30.25F WCI  26
ANN ARBOR      CLOUDY    34  28  79 E5        30.25F HAZE    WCI  30
BAD AXE        CLOUDY    33  24  71 SW7       30.26F WCI  26
CARO           CLOUDY    33  24  68 CALM      30.25F
DETROIT        LGT RAIN  35  27  72 E3        30.27F
FLINT          LGT RAIN  32  27  81 S6        30.25F WCI  26
GROSSE ILE     LGT RAIN  35  29  80 SE3       30.26F
HILLSDALE      MIX PCPN  32  32 100 E8        30.20F WCI  25
HOWELL         MIX PCPN  32  29  87 SE5       30.23F WCI  28

CITY           SKY/WX    TMP DP  RH WIND       PRES   REMARKS
JACKSON        CLOUDY    35  25  66 SE9       30.21F WCI  28
LAMBERTVILLE   CLOUDY    36  28  75 E3        30.25F
LANSING        MIX PCPN  34  27  75 SE6       30.24F WCI  29
LAPEER         CLOUDY    33  22  64 SW6       30.26F WCI  27
MASON          MIX PCPN  33  28  80 SE6       30.23S WCI  28
MONROE         CLOUDY    33  29  85 E10       30.26F WCI  25
MT. CLEMENS    MOSUNNY   32  28  83 CALM      30.25F
PONTIAC        LGTSLEET  31  26  82 SE3       30.23F HAZE
PORT HOPE        N/A     35  24  64 VRB3      30.24F
PORT HURON     LGT SNOW  30  28  93 CALM      30.28F
TRI CITIES     CLOUDY    32  23  69 SE3       30.26F
MIDLAND        CLOUDY    32  23  68 CALM      30.25F
TROY           CLOUDY    33  27  80 CALM      30.27F HAZE
SAGINAW HB     CLOUDY    32  23  69 E3        30.26F
$$
MIZ043>046-050>051-056>058-064>065-071>073-077>080-162000-
SOUTHWEST LOWER MICHIGAN

CITY           SKY/WX    TMP DP  RH WIND       PRES   REMARKS
BATTLE CREEK   LGT RAIN  35  33  92 E5        30.20F FOG     WCI  31
BENTON HARBOR  MIX PCPN  36  34  92 E8        30.17F FOG     WCI  30
BIG RAPIDS     CLOUDY    32  20  60 CALM      30.20F
COLDWATER      LGT RAIN  36  35  99 SE8       30.19F WCI  29
FREMONT        DRIZZLE   32  22  65 E5        30.21F WCI  28
HOLLAND        LGT RAIN  34  30  85 E6        30.20F WCI  29
GRAND RAPIDS   LGT RAIN  33  29  85 E6        30.22F FOG     WCI  28
IONIA          MIX PCPN  31  29  90 E5        30.22F WCI  26
KALAMAZOO      LGT RAIN  35  31  85 E6        30.19F FOG     WCI  30
LUDINGTON      CLOUDY    34  31  88 E5        30.20F FOG     WCI  30
MARSHALL       LGT RAIN  36  32  85 CALM      30.20F
MOUNT PLEASANT CLOUDY    33  19  58 CALM      30.23F
MUSKEGON       LGT RAIN  34  30  85 E5        30.22F WCI  30
SOUTH HAVEN    LGT SNOW  34  33  96 E6        30.18F WCI  29
$$
MIZ016>042-162000-
NORTHERN LOWER MICHIGAN

CITY           SKY/WX    TMP DP  RH WIND       PRES   REMARKS
ALPENA         CLOUDY    37  18  46 W6        30.20F WCI  32
BELLAIRE       CLOUDY    34  28  79 S6        30.22F WCI  29
CADILLAC       CLOUDY    32  28  87 CALM      30.19F
CHARLEVOIX     CLOUDY    36  25  65 SW6       30.23F WCI  31
FRANKFORT      MOSUNNY   36  30  78 CALM      30.21F
GAYLORD        CLOUDY    35  21  56 W8        30.17F WCI  29
GRAYLING       CLOUDY    34  24  66 SW5       30.21F WCI  30
HARBOR SPRINGS CLOUDY    35  27  73 W5        30.20F WCI  31
HOUGHTON LAKE  CLOUDY    30  25  81 S3        30.22F
MANISTEE       CLOUDY    33  29  85 E3        30.21F FOG
OSCODA         MOSUNNY   34  25  69 SW9       30.23F WCI  27
PELLSTON       CLOUDY    36  23  59 SW6       30.20F WCI  31
ROGERS CITY    CLOUDY    39  24  53 W5        30.20S
TRAVERSE CITY  CLOUDY    36  27  69 CALM      30.20F
$$
MIZ007>008-015-162000-
EASTERN UPPER MICHIGAN

CITY           SKY/WX    TMP DP  RH WIND       PRES   REMARKS
KINROSS        SUNNY     36  25  64 W12       30.15F WCI  28
MACKINAC ISLAN CLOUDY    32  29  90 SW9       30.18F WCI  24
NEWBERRY       SUNNY     31  19  60 CALM      30.16F
S. S. MARIE    SUNNY     35  23  61 CALM      30.15F
$$
MIZ004>006-011>014-085-162000-
CENTRAL UPPER MICHIGAN

CITY           SKY/WX    TMP DP  RH WIND       PRES   REMARKS
MANISTIQUE     CLOUDY    29  23  76 S7        30.17F WCI  22
ESCANABA       CLOUDY    30  21  69 S10       30.18F WCI  21
SAWYER-GWINN   SUNNY     32  19  59 S8        30.11F WCI  25
$$
MIZ001>003-009>011-084-162000-
WESTERN UPPER MICHIGAN

CITY           SKY/WX    TMP DP  RH WIND       PRES   REMARKS
IRON MOUNTAIN  CLOUDY    37  12  35 CALM      30.12F
HOUGHTON       SUNNY     33  24  69 W9        30.10F WCI  25
IRONWOOD       CLOUDY    37  18  46 CALM      30.10F
$$

ABBREVIATIONS USED IN REMARKS
   TC - TEMPERATURE IN CELSIUS
  WCI - WIND CHILL INDEX
   HX - HEAT INDEX
  VSB - VISIBILITY





USA.gov is the U.S. government's official web portal to all federal, state and local government web resources and services.